Location: Clinton NY
(43.0598°N, 75.3602°W)
Time: 05:38:45
(UTC-04:00)

Amateur Radio Satellites - All Passes

Search period start: 22 October 2014 05:08
Search period end: 23 October 2014 05:08
Location: Clinton NY, 43.0598°N, 75.3602°W

Satellite Date Start Highest point End Downlink Frequencies (MHz)
Time Altitude Azimuth
Sapphire 22 Oct 05:14:18 05:19:43 87° 300° (WNW) 05:25:11 437.095 MHz 1200 baud AX-25 AFSK
Gurwin Techsat 1B 22 Oct 05:36:18 05:39:13 15° 301° (WNW) 05:42:07 435.225 FM
PCSat 22 Oct 05:37:26 05:42:43 54° 305° (NW) 05:48:03 145.825 MHz
Uosat F 22 Oct 05:37:40 05:42:45 84° 104° (ESE) 05:47:48 435.120 FM
Hamsat 22 Oct 05:40:39 05:42:14 12° 89° (E) 05:43:48 145.90 MHz
TMSAT-1 22 Oct 05:49:34 05:52:31 15° 301° (WNW) 05:55:27 436.925 FM
JAS-2 22 Oct 06:09:06 06:16:36 52° 98° (E) 06:24:11 435.800 - 435.900 CW/SSB, 435.910 FM
RS-15 22 Oct 06:14:05 06:24:17 39° 36° (NE) 06:34:47 29.354 - 29.394 USB, Beacon 29.352 USB
OPAL 22 Oct 06:15:36 06:19:53 26° 263° (W) 06:24:09 ?
STRAND 1 22 Oct 06:15:38 06:20:16 36° 67° (ENE) 06:24:55 ?
AO-7 22 Oct 06:24:31 06:32:35 57° 295° (WNW) 06:40:39 29.400 - 29.500 MHz
Sapphire 22 Oct 07:00:23 07:03:57 18° 321° (NW) 07:07:32 437.095 MHz 1200 baud AX-25 AFSK
Hamsat 22 Oct 07:14:26 07:18:34 60° 286° (WNW) 07:22:42 145.90 MHz
Uosat F 22 Oct 07:18:22 07:20:50 14° 302° (WNW) 07:23:17 435.120 FM
PCSat 22 Oct 07:25:13 07:27:25 12° 327° (NNW) 07:29:37 145.825 MHz
SO-67 22 Oct 07:26:57 07:29:39 21° 94° (E) 07:32:21 435.3500 MHz FM
JAS-2 22 Oct 07:54:28 08:01:20 38° 296° (WNW) 08:08:23 435.800 - 435.900 CW/SSB, 435.910 FM
STRAND 1 22 Oct 07:55:02 07:59:28 29° 264° (W) 08:03:57 ?
Saudisat 1A 22 Oct 08:16:31 08:20:34 38° 117° (ESE) 08:24:39 436.775 MHz
AO-7 22 Oct 08:19:40 08:23:37 14° 317° (NW) 08:27:35 29.400 - 29.500 MHz
RS-15 22 Oct 08:26:35 08:37:43 77° 241° (WSW) 08:49:21 29.354 - 29.394 USB, Beacon 29.352 USB
HO-68 22 Oct 08:33:27 08:37:24 15° 88° (E) 08:41:19 435.675 MHz FM
SO-67 22 Oct 08:59:50 09:02:34 22° 291° (WNW) 09:05:17 435.3500 MHz FM
MaSat-1 22 Oct 09:19:53 09:21:37 15° 52° (NE) 09:23:16 437.345 MHz
Saudisat 1A 22 Oct 09:56:27 10:00:13 27° 315° (NW) 10:04:02 436.775 MHz
UKube-1 22 Oct 10:10:46 10:14:40 31° 97° (E) 10:18:33 145.840 MHz, 145.915 MHz
HO-68 22 Oct 10:18:49 10:26:04 85° 106° (ESE) 10:33:16 435.675 MHz FM
RS-15 22 Oct 10:41:24 10:48:14 19° 262° (W) 10:55:15 29.354 - 29.394 USB, Beacon 29.352 USB
FUNcube-1 22 Oct 10:45:29 10:49:13 29° 95° (E) 10:52:51 145.950 - 145.970 MHz USB
Oscar 11 22 Oct 10:54:39 10:58:59 89° 106° (ESE) 11:03:18 145.825 FM, Beacon 2401.500 USB
MaSat-1 22 Oct 10:55:28 10:57:15 16° 253° (WSW) 10:58:55 437.345 MHz
ZACube-1 22 Oct 11:35:54 11:40:13 77° 284° (WNW) 11:44:24 437.345 MHz
UKube-1 22 Oct 11:47:08 11:50:44 26° 294° (WNW) 11:54:20 145.840 MHz, 145.915 MHz
HO-68 22 Oct 12:07:51 12:12:55 21° 306° (NW) 12:17:59 435.675 MHz FM
KITSAT 1 22 Oct 12:10:04 12:17:03 34° 108° (ESE) 12:24:02 435.175 FM
Sapphire 22 Oct 12:19:00 12:22:42 18° 40° (NE) 12:26:23 437.095 MHz 1200 baud AX-25 AFSK
FUNcube-1 22 Oct 12:21:57 12:25:30 26° 293° (WNW) 12:28:59 145.950 - 145.970 MHz USB
Oscar 19 22 Oct 12:29:59 12:33:41 20° 62° (ENE) 12:37:23 437.125 CW, 437.150 USB
PCSat 22 Oct 12:41:27 12:46:00 26° 46° (NE) 12:50:31 145.825 MHz
AO-27 22 Oct 12:42:54 12:44:44 12° 56° (NE) 12:46:33 436.795 MHz FM
Oscar 16 22 Oct 13:13:41 13:18:39 49° 70° (ENE) 13:23:37 437.025 USB, Beacon 2401.1428
ISS 22 Oct 13:14:15 13:16:31 17° 133° (SE) 13:18:48 145.800 FM
SO-50 22 Oct 13:16:30 13:20:17 27° 114° (ESE) 13:24:10 436.795 FM
Uribyol 2 22 Oct 13:28:48 13:33:20 31° 66° (ENE) 13:37:53 436.500 FM
AO-Echo 22 Oct 13:31:24 13:35:48 35° 68° (ENE) 13:40:21 ?
JAS-1B 22 Oct 13:33:01 13:38:57 60° 71° (ENE) 13:44:31 435.800 - 435.900 CW/SSB
ITAMSAT 1 22 Oct 13:34:03 13:38:38 32° 66° (ENE) 13:43:14 435.822 SSB
Gurwin Techsat 1B 22 Oct 13:38:49 13:42:34 20° 61° (ENE) 13:46:19 435.225 FM
AO-7 22 Oct 13:45:51 13:48:58 13° 41° (NE) 13:52:05 29.400 - 29.500 MHz
TMSAT-1 22 Oct 13:51:56 13:55:37 19° 61° (ENE) 13:59:18 436.925 FM
Sapphire 22 Oct 14:01:26 14:06:54 90° 241° (WSW) 14:12:20 437.095 MHz 1200 baud AX-25 AFSK
KITSAT 1 22 Oct 14:04:03 14:12:01 60° 308° (NW) 14:20:01 435.175 FM
Oscar 19 22 Oct 14:07:33 14:12:37 56° 259° (W) 14:17:41 437.125 CW, 437.150 USB
AO-27 22 Oct 14:18:10 14:23:22 80° 74° (ENE) 14:28:38 436.795 MHz FM
PCSat 22 Oct 14:24:26 14:29:44 55° 245° (WSW) 14:34:59 145.825 MHz
ISS 22 Oct 14:49:35 14:52:54 64° 330° (NNW) 14:56:14 145.800 FM
Oscar 16 22 Oct 14:54:23 14:58:15 21° 267° (W) 15:02:08 437.025 USB, Beacon 2401.1428
UOSAT-12 22 Oct 14:54:55 14:58:43 26° 113° (ESE) 15:02:35 437.025 FM, 437.400 FM
SO-50 22 Oct 14:56:28 15:00:41 37° 312° (NW) 15:05:02 436.795 FM
Oscar 10/S400 22 Oct 14:58:38 15:15:51 42° 156° (SSE) 15:45:19 145.825 - 145.975 CW/USB, Beacon 145.810 USB
Uribyol 2 22 Oct 15:07:57 15:12:42 35° 263° (W) 15:17:30 436.500 FM
AO-Echo 22 Oct 15:10:31 15:14:37 27° 266° (W) 15:18:52 ?
ITAMSAT 1 22 Oct 15:13:22 15:18:03 34° 263° (W) 15:22:47 435.822 SSB
Uosat F 22 Oct 15:15:25 15:18:38 17° 60° (ENE) 15:21:51 435.120 FM
Gurwin Techsat 1B 22 Oct 15:16:50 15:22:03 60° 259° (W) 15:27:20 435.225 FM
JAS-1B 22 Oct 15:26:02 15:30:05 18° 268° (W) 15:33:58 435.800 - 435.900 CW/SSB
TMSAT-1 22 Oct 15:29:48 15:35:02 62° 259° (W) 15:40:19 436.925 FM
AO-7 22 Oct 15:31:57 15:39:49 51° 63° (ENE) 15:47:43 29.400 - 29.500 MHz
Sapphire 22 Oct 15:47:19 15:49:29 12° 258° (WSW) 15:51:40 437.095 MHz 1200 baud AX-25 AFSK
AO-27 22 Oct 16:01:13 16:03:30 13° 271° (W) 16:05:48 436.795 MHz FM
KITSAT 1 22 Oct 16:03:35 16:09:17 20° 333° (NNW) 16:15:00 435.175 FM
JAS-2 22 Oct 16:24:00 16:28:33 23° 58° (ENE) 16:33:30 435.800 - 435.900 CW/SSB, 435.910 FM
ISS 22 Oct 16:27:26 16:30:05 21° 349° (N) 16:32:43 145.800 FM
UOSAT-12 22 Oct 16:34:14 16:38:39 42° 311° (NW) 16:43:10 437.025 FM, 437.400 FM
Hamsat 22 Oct 16:36:10 16:37:09 11° 61° (ENE) 16:38:08 145.90 MHz
Saudisat 1A 22 Oct 16:42:02 16:46:16 42° 50° (NE) 16:50:28 436.775 MHz
Uosat F 22 Oct 16:51:55 16:56:53 65° 258° (WSW) 17:01:55 435.120 FM
AO-7 22 Oct 17:25:12 17:32:46 39° 262° (W) 17:40:23 29.400 - 29.500 MHz
KITSAT 1 22 Oct 18:04:58 18:08:33 13° 3° (N) 18:12:08 435.175 FM
ISS 22 Oct 18:05:01 18:07:37 20° 9° (N) 18:10:12 145.800 FM
JAS-2 22 Oct 18:07:10 18:12:55 65° 260° (W) 18:19:30 435.800 - 435.900 CW/SSB, 435.910 FM
Hamsat 22 Oct 18:08:16 18:12:29 77° 258° (WSW) 18:16:42 145.90 MHz
UOSAT-12 22 Oct 18:19:48 18:20:05 10° 333° (NNW) 18:20:22 437.025 FM, 437.400 FM
Saudisat 1A 22 Oct 18:22:07 18:25:35 23° 247° (WSW) 18:29:03 436.775 MHz
OPAL 22 Oct 18:23:26 18:28:26 75° 105° (ESE) 18:33:22 ?
STRAND 1 22 Oct 18:28:12 18:29:01 10° 87° (E) 18:29:50 ?
HO-68 22 Oct 19:04:40 19:08:28 15° 50° (NE) 19:12:16 435.675 MHz FM
SO-67 22 Oct 19:32:26 19:35:49 58° 260° (W) 19:39:14 435.3500 MHz FM
ISS 22 Oct 19:41:32 19:44:50 56° 29° (NNE) 19:48:07 145.800 FM
KITSAT 1 22 Oct 20:01:06 20:07:30 25° 33° (NNE) 20:13:53 435.175 FM
STRAND 1 22 Oct 20:03:44 20:08:56 87° 104° (ESE) 20:14:05 ?
OPAL 22 Oct 20:03:55 20:06:42 15° 303° (WNW) 20:09:29 ?
RS-15 22 Oct 20:47:03 20:51:23 13° 95° (E) 20:55:41 29.354 - 29.394 USB, Beacon 29.352 USB
HO-68 22 Oct 20:47:50 20:54:56 71° 70° (ENE) 21:02:05 435.675 MHz FM
ZACube-1 22 Oct 21:00:09 21:01:30 11° 60° (ENE) 21:02:51 437.345 MHz
UKube-1 22 Oct 21:07:09 21:10:59 31° 68° (ENE) 21:14:50 145.840 MHz, 145.915 MHz
ISS 22 Oct 21:18:45 21:21:17 20° 226° (SW) 21:23:49 145.800 FM
FUNcube-1 22 Oct 21:42:29 21:46:25 29° 68° (ENE) 21:50:20 145.950 - 145.970 MHz USB
STRAND 1 22 Oct 21:44:56 21:47:23 14° 302° (WNW) 21:49:50 ?
SO-50 22 Oct 21:46:24 21:50:54 37° 48° (NE) 21:55:25 436.795 FM
Oscar 11 22 Oct 21:50:18 21:54:37 78° 75° (ENE) 21:58:58 145.825 FM, Beacon 2401.500 USB
KITSAT 1 22 Oct 21:56:06 22:04:14 80° 57° (ENE) 22:12:19 435.175 FM
ZACube-1 22 Oct 22:32:36 22:37:13 87° 257° (WSW) 22:41:48 437.345 MHz
HO-68 22 Oct 22:37:49 22:43:13 23° 268° (W) 22:48:40 435.675 MHz FM
UKube-1 22 Oct 22:43:35 22:47:10 25° 265° (W) 22:50:47 145.840 MHz, 145.915 MHz
RS-15 22 Oct 22:50:34 23:01:23 66° 116° (ESE) 23:12:07 29.354 - 29.394 USB, Beacon 29.352 USB
FUNcube-1 22 Oct 23:18:42 23:22:43 30° 264° (W) 23:26:44 145.950 - 145.970 MHz USB
UOSAT-12 22 Oct 23:22:57 23:27:13 32° 46° (NE) 23:31:24 437.025 FM, 437.400 FM
SO-50 22 Oct 23:27:06 23:31:24 32° 245° (WSW) 23:35:42 436.795 FM
KITSAT 1 22 Oct 23:52:48 23:58:44 23° 257° (WSW) 00:04:41 435.175 FM
MaSat-1 23 Oct 00:31:59 00:36:10 67° 115° (ESE) 00:39:58 437.345 MHz
UOSAT-12 23 Oct 01:03:05 01:07:23 36° 244° (WSW) 01:11:36 437.025 FM, 437.400 FM
RS-15 23 Oct 01:04:06 01:14:21 43° 321° (NW) 01:24:42 29.354 - 29.394 USB, Beacon 29.352 USB
JAS-1B 23 Oct 01:15:46 01:19:39 16° 91° (E) 01:23:51 435.800 - 435.900 CW/SSB
Oscar 16 23 Oct 01:25:42 01:28:47 16° 90° (E) 01:31:50 437.025 USB, Beacon 2401.1428
AO-Echo 23 Oct 01:39:40 01:41:19 11° 87° (E) 01:42:59 ?
MaSat-1 23 Oct 02:10:12 02:12:10 13° 309° (NW) 02:14:03 437.345 MHz
Oscar 19 23 Oct 02:18:09 02:23:06 48° 99° (E) 02:28:01 437.125 CW, 437.150 USB
AO-27 23 Oct 02:30:50 02:35:14 27° 95° (E) 02:39:36 436.795 MHz FM
Oscar 16 23 Oct 03:03:30 03:08:35 64° 287° (WNW) 03:13:38 437.025 USB, Beacon 2401.1428
JAS-1B 23 Oct 03:04:17 03:10:48 90° 287° (WNW) 03:18:36 435.800 - 435.900 CW/SSB
AO-Echo 23 Oct 03:15:26 03:20:46 89° 103° (ESE) 03:26:06 ?
Uribyol 2 23 Oct 03:19:07 03:24:22 77° 103° (ESE) 03:29:33 436.500 FM
RS-15 23 Oct 03:22:20 03:30:38 24° 355° (N) 03:39:05 29.354 - 29.394 USB, Beacon 29.352 USB
ITAMSAT 1 23 Oct 03:24:35 03:29:51 81° 104° (ESE) 03:35:04 435.822 SSB
PCSat 23 Oct 03:26:01 03:29:19 17° 104° (ESE) 03:32:37 145.825 MHz
Gurwin Techsat 1B 23 Oct 03:32:02 03:37:14 51° 100° (E) 03:42:23 435.225 FM
AO-7 23 Oct 03:35:13 03:38:35 13° 86° (E) 03:41:57 29.400 - 29.500 MHz
TMSAT-1 23 Oct 03:44:41 03:49:51 50° 99° (E) 03:54:58 436.925 FM
Oscar 19 23 Oct 03:58:12 04:02:07 23° 297° (WNW) 04:06:02 437.125 CW, 437.150 USB
OPAL 23 Oct 04:02:12 04:05:58 21° 60° (ENE) 04:09:43 ?
AO-27 23 Oct 04:09:59 04:14:51 40° 292° (WNW) 04:19:41 436.795 MHz FM
Sapphire 23 Oct 04:43:54 04:49:16 71° 117° (ESE) 04:54:41 437.095 MHz 1200 baud AX-25 AFSK
AO-Echo 23 Oct 04:56:09 04:58:47 14° 301° (WNW) 05:01:26 ?
JAS-1B 23 Oct 04:56:50 05:00:50 17° 302° (WNW) 05:05:12 435.800 - 435.900 CW/SSB
Uosat F 23 Oct 04:58:50 05:03:30 36° 97° (E) 05:08:06 435.120 FM
Uribyol 2 23 Oct 05:00:12 05:03:11 16° 301° (WNW) 05:06:09 436.500 FM
